Location: B?dargowo
(53.3916°N, 14.4413°E)
Time: 06:15:26
(UTC+00:00)

Cosmos 2285 Rocket - Pass Details

Date: 05 February 2023
Orbit: 971 x 998 km, 74.0° (Epoch: 24 March)

Event Time Altitude Azimuth Distance (km) Brightness Sun altitude
Rises 19:25:08 0° 333° (NNW) 3,698 7.6 -31.7°
Reaches altitude 10° 19:27:43 10° 335° (NNW) 2,742 6.8 -32.0°
Enters shadow 19:32:28 52° 349° (NNW) 1,198 4.5 -32.7°
